This is the latest recevied weather packets stored in our database for station/object IZ1UQG-N2. If no packets are shown the sender has not sent any weather packets the latest 10 day(s).
| Time | Temp. | Humidity | Pressure | Rain* | Wind** | Luminosity | Snow |
|---|---|---|---|---|---|---|---|
| 1777548561 | 16.67° C | 48% | 1022.6 hPa | 0 mm | - | 905 W/m² | - |
| 1777548548 | 16.67° C | 48% | 1022.6 hPa | 0 mm | - | 905 W/m² | - |
| 1777548501 | 16.67° C | 48% | 1022.4 hPa | 0 mm | - | 772 W/m² | - |
| 1777548440 | 16.11° C | 47% | 1022.6 hPa | 0 mm | - | 995 W/m² | - |
| 1777548380 | 16.67° C | 46% | 1022.7 hPa | 0 mm | - | 981 W/m² | - |
| 1777548368 | 16.67° C | 46% | 1022.7 hPa | 0 mm | - | 981 W/m² | - |
| 1777548322 | 16.67° C | 47% | 1022.7 hPa | 0 mm | - | 856 W/m² | - |
| 1777548262 | 16.67° C | 48% | 1022.7 hPa | 0 mm | - | 617 W/m² | - |
| 1777548202 | 16.67° C | 48% | 1022.7 hPa | 0 mm | - | 935 W/m² | - |
| 1777548187 | 16.67° C | 48% | 1022.7 hPa | 0 mm | - | 935 W/m² | - |
| 1777548141 | 16.11° C | 47% | 1022.7 hPa | 0 mm | - | 807 W/m² | - |
| 1777548081 | 16.67° C | 48% | 1022.8 hPa | 0 mm | - | 615 W/m² | - |
| 1777548021 | 16.11° C | 48% | 1022.8 hPa | 0 mm | - | 582 W/m² | - |
| 1777548007 | 16.11° C | 48% | 1022.8 hPa | 0 mm | - | 582 W/m² | - |
| 1777547961 | 16.11° C | 47% | 1022.8 hPa | 0 mm | - | 587 W/m² | - |
| 1777547900 | 16.11° C | 47% | 1022.7 hPa | 0 mm | - | 659 W/m² | - |
| 1777547842 | 16.11° C | 47% | 1022.7 hPa | 0 mm | - | 635 W/m² | - |
| 1777547827 | 16.11° C | 47% | 1022.7 hPa | 0 mm | - | 635 W/m² | - |
| 1777547781 | 16.11° C | 47% | 1022.8 hPa | 0 mm | - | 526 W/m² | - |
| 1777547721 | 16.11° C | 47% | 1022.8 hPa | 0 mm | - | 490 W/m² | - |
| 1777547661 | 16.11° C | 46% | 1022.9 hPa | 0 mm | - | 473 W/m² | - |
| 1777547647 | 16.11° C | 46% | 1022.9 hPa | 0 mm | - | 473 W/m² | - |
| 1777547601 | 16.11° C | 46% | 1022.7 hPa | 0 mm | - | 466 W/m² | - |
| 1777547541 | 16.11° C | 46% | 1022.8 hPa | 0 mm | - | 476 W/m² | - |
| 1777547481 | 16.11° C | 47% | 1022.8 hPa | 0 mm | - | 487 W/m² | - |
* Rain latest hour (hover to see other rain measurements)
** Current wind speed in m/s (hover to see current wind gust speed)